CW8739 Weather Reports


Display with metric or nautical units.
time (UTC)temp
F
wind
direction
speed
MPH
gust
MPH
rain 1hr
in
rain 24hr
in
rain mn
in
humidity
%
barometer
mb
20260505001853 53 262 12.0 24.0 0.00 1.65 0.31 65 1003.8
20260505000322 53 231 10.0 24.0 0.00 1.65 0.31 65 1003.5
20260504234841 53 267 6.0 17.0 0.00 1.65 0.31 64 1003.1
20260504233333 53 256 9.0 23.0 0.00 1.65 0.31 63 1002.8
20260504231851 54 245 15.0 26.0 0.00 1.65 0.31 59 1002.7
20260504230323 53 239 11.0 21.0 0.00 1.65 0.31 58 1002.5
20260504224838 52 277 7.0 19.0 0.00 1.93 0.31 59 1002.4
20260504223332 53 282 16.0 28.0 0.00 1.93 0.31 56 1002.3
20260504221822 56 248 19.0 46.0 0.00 1.93 0.31 44 1002.4
20260504220324 56 273 10.0 19.0 0.00 1.93 0.31 40 1002.0
20260504214834 58 303 4.0 25.0 0.00 2.13 0.31 41 1001.9
20260504213356 57 256 16.0 33.0 0.00 2.13 0.31 41 1002.0
20260504211825 57 263 22.0 35.0 0.00 2.13 0.31 42 1001.7
20260504210347 57 290 15.0 26.0 0.00 2.13 0.31 43 1001.6
20260504204836 58 213 13.0 28.0 0.00 2.44 0.31 43 1001.2
20260504203329 57 258 6.0 23.0 0.00 2.44 0.31 45 1001.2
20260504201819 57 269 16.0 35.0 0.00 2.44 0.31 44 1001.1
20260504200322 57 258 15.0 28.0 0.00 2.44 0.31 45 1000.9
20260504194832 57 273 13.0 25.0 0.00 2.68 0.31 49 1000.5
20260504193354 56 267 16.0 26.0 0.00 2.68 0.31 49 1000.3
20260504191823 56 238 10.0 30.0 0.00 2.68 0.31 52 1000.5
20260504190344 56 257 12.0 35.0 0.00 2.68 0.31 53 1000.2
20260504184829 56 278 16.0 31.0 0.00 2.76 0.31 54 1000.1
20260504183323 56 267 18.0 32.0 0.00 2.76 0.31 54 999.8
20260504181835 56 275 11.0 25.0 0.00 2.76 0.31 57 999.7
20260504174847 56 285 16.0 37.0 0.00 2.76 0.31 55 999.4
20260504173321 55 277 19.0 38.0 0.00 2.76 0.31 57 999.1
20260504171831 56 267 13.0 31.0 0.00 2.76 0.31 61 999.3
20260504170352 54 280 12.0 23.0 0.00 2.76 0.31 67 999.1
20260504160328 51 256 13.0 38.0 0.00 2.76 0.31 75 998.4
20260504150328 50 261 18.0 41.0 0.00 2.76 0.31 77 997.7
20260504070333 38 285 16.0 36.0 0.16 1.89 0.13 95 981.2
20260504050323 39 282 11.0 24.0 0.12 1.54 0.06 96 977.6
20260504044830 39 277 10.0 20.0 0.08 1.46 0.05 95 977.3
20260504043330 40 258 10.0 18.0 0.08 1.42 0.04 96 976.8
20260504041836 41 285 4.0 12.0 0.12 1.42 0.04 96 976.4
20260504040331 41 296 4.0 10.0 0.20 1.42 0.04 96 976.0
20260504034821 40 296 4.0 11.0 0.20 1.38 0.03 96 975.7
20260504033335 40 327 2.0 10.0 0.20 1.34 0.02 96 975.7
20260504031826 40 344 4.0 9.0 0.12 1.26 0.01 95 975.5
20260504030347 40 13 5.0 11.0 0.12 1.22 0.00 95 975.7
20260504024836 40 34 5.0 12.0 0.08 1.18 0.24 95 975.8
20260504023330 40 40 5.0 10.0 0.04 1.14 0.23 95 976.0
20260504021820 41 71 7.0 13.0 0.04 1.14 0.23 95 976.1
20260504020321 41 66 6.0 11.0 0.00 1.10 0.22 95 976.5
20260504014831 41 80 8.0 13.0 0.00 1.10 0.22 95 976.9
20260504013353 41 69 11.0 17.0 0.00 1.10 0.22 95 977.2
20260504011821 41 75 15.0 22.0 0.00 1.10 0.22 95 977.5
20260504010343 41 61 14.0 19.0 0.00 1.10 0.22 95 978.6
20260504004852 41 61 10.0 18.0 0.00 1.10 0.22 94 979.7
20260504003348 41 57 14.0 20.0 0.00 1.10 0.22 94 980.2